| time (UTC) | temp F | wind direction | speed MPH | gust MPH | rain 1hr in | rain 24hr in | rain mn in | humidity % | barometer mb |
| 20260503224546 | 57 | 227 | 4.0 | 13.0 | 0.00 | 0.00 | 0.00 | 38 | 1012.4 |
| 20260503223044 | 57 | 242 | 5.0 | 14.0 | 0.00 | 0.00 | 0.00 | 39 | 1012.5 |
| 20260503221543 | 57 | 275 | 4.0 | 16.0 | 0.00 | 0.00 | 0.00 | 40 | 1012.5 |
| 20260503220046 | 56 | 259 | 4.0 | 17.0 | 0.00 | 0.00 | 0.00 | 39 | 1012.5 |
| 20260503214539 | 57 | 235 | 6.0 | 16.0 | 0.00 | 0.00 | 0.00 | 37 | 1012.5 |
| 20260503213046 | 57 | 236 | 5.0 | 14.0 | 0.00 | 0.00 | 0.00 | 38 | 1012.5 |
| 20260503211545 | 56 | 319 | 8.0 | 19.0 | 0.00 | 0.00 | 0.00 | 38 | 1012.3 |
| 20260503210043 | 57 | 232 | 6.0 | 18.0 | 0.00 | 0.00 | 0.00 | 39 | 1012.4 |
| 20260503204544 | 57 | 254 | 5.0 | 16.0 | 0.00 | 0.00 | 0.00 | 38 | 1012.4 |
| 20260503203042 | 57 | 282 | 4.0 | 12.0 | 0.00 | 0.00 | 0.00 | 39 | 1012.6 |
| 20260503201544 | 56 | 311 | 6.0 | 14.0 | 0.00 | 0.00 | 0.00 | 38 | 1012.8 |
| 20260503200047 | 57 | 332 | 6.0 | 16.0 | 0.00 | 0.00 | 0.00 | 39 | 1012.8 |
| 20260503194549 | 57 | 276 | 6.0 | 18.0 | 0.00 | 0.00 | 0.00 | 37 | 1012.9 |
| 20260503193046 | 57 | 286 | 5.0 | 14.0 | 0.00 | 0.00 | 0.00 | 38 | 1013.1 |
| 20260503191544 | 55 | 216 | 4.0 | 16.0 | 0.00 | 0.00 | 0.00 | 42 | 1013.2 |
| 20260503190050 | 56 | 249 | 5.0 | 14.0 | 0.00 | 0.00 | 0.00 | 38 | 1013.3 |
| 20260503184555 | 55 | 259 | 6.0 | 16.0 | 0.00 | 0.00 | 0.00 | 42 | 1013.4 |
| 20260503183044 | 55 | 331 | 5.0 | 19.0 | 0.00 | 0.00 | 0.00 | 42 | 1013.7 |
| 20260503181544 | 55 | 313 | 5.0 | 19.0 | 0.00 | 0.00 | 0.00 | 39 | 1013.7 |
| 20260503180053 | 54 | 0 | 8.0 | 18.0 | 0.00 | 0.00 | 0.00 | 41 | 1013.7 |
| 20260503174602 | 53 | 267 | 7.0 | 21.0 | 0.00 | 0.00 | 0.00 | 42 | 1013.9 |
| 20260503173048 | 53 | 302 | 6.0 | 16.0 | 0.00 | 0.00 | 0.00 | 42 | 1014.0 |
| 20260503171540 | 53 | 223 | 3.0 | 13.0 | 0.00 | 0.00 | 0.00 | 42 | 1014.0 |
| 20260503081549 | 37 | 286 | 3.0 | 9.0 | 0.00 | 0.00 | 0.00 | 70 | 1013.8 |
| 20260503071543 | 37 | 327 | 2.0 | 8.0 | 0.00 | 0.01 | 0.00 | 68 | 1013.8 |
| 20260503054545 | 39 | 0 | 1.0 | 8.0 | 0.00 | 0.03 | 0.00 | 65 | 1013.9 |
| 20260503053043 | 39 | 325 | 2.0 | 8.0 | 0.00 | 0.03 | 0.00 | 64 | 1013.9 |
| 20260503051543 | 40 | 0 | 1.0 | 5.0 | 0.00 | 0.03 | 0.00 | 64 | 1013.9 |
| 20260503050049 | 40 | 349 | 0.0 | 7.0 | 0.00 | 0.03 | 0.00 | 64 | 1014.0 |
| 20260503044552 | 40 | 321 | 0.0 | 6.0 | 0.00 | 0.08 | 0.00 | 63 | 1014.0 |
| 20260503043045 | 40 | 0 | 0.0 | 3.0 | 0.00 | 0.08 | 0.00 | 63 | 1014.0 |
| 20260503041545 | 40 | 0 | 0.0 | 3.0 | 0.00 | 0.08 | 0.00 | 63 | 1014.0 |
| 20260503040047 | 41 | 0 | 0.0 | 3.0 | 0.00 | 0.08 | 0.00 | 62 | 1014.1 |
| 20260503034603 | 41 | 0 | 0.0 | 8.0 | 0.00 | 0.13 | 0.08 | 62 | 1014.2 |
| 20260503033052 | 41 | 0 | 0.0 | 5.0 | 0.00 | 0.13 | 0.08 | 63 | 1014.3 |
| 20260503031552 | 41 | 324 | 2.0 | 6.0 | 0.00 | 0.13 | 0.08 | 63 | 1014.4 |
| 20260503030046 | 41 | 321 | 2.0 | 10.0 | 0.00 | 0.13 | 0.08 | 64 | 1014.4 |
| 20260503024550 | 41 | 317 | 2.0 | 8.0 | 0.00 | 0.14 | 0.08 | 65 | 1014.4 |
| 20260503023041 | 42 | 302 | 2.0 | 7.0 | 0.00 | 0.14 | 0.08 | 65 | 1014.4 |
| 20260503021542 | 42 | 323 | 0.0 | 4.0 | 0.00 | 0.14 | 0.08 | 67 | 1014.5 |
| 20260503020041 | 42 | 316 | 1.0 | 9.0 | 0.00 | 0.14 | 0.08 | 67 | 1014.4 |
| 20260503014555 | 42 | 304 | 0.0 | 7.0 | 0.00 | 0.14 | 0.08 | 70 | 1014.2 |
| 20260503013045 | 42 | 280 | 0.0 | 5.0 | 0.00 | 0.14 | 0.08 | 71 | 1014.2 |
| 20260503011546 | 42 | 0 | 2.0 | 7.0 | 0.00 | 0.14 | 0.08 | 71 | 1014.2 |
| 20260503010045 | 42 | 271 | 0.0 | 7.0 | 0.00 | 0.14 | 0.08 | 72 | 1014.0 |
| 20260503004542 | 42 | 0 | 2.0 | 10.0 | 0.00 | 0.17 | 0.08 | 72 | 1013.9 |
| 20260503003050 | 43 | 269 | 2.0 | 9.0 | 0.00 | 0.17 | 0.08 | 72 | 1013.7 |
| 20260503001605 | 43 | 259 | 2.0 | 8.0 | 0.00 | 0.17 | 0.08 | 71 | 1013.7 |
| 20260503000050 | 43 | 0 | 2.0 | 9.0 | 0.00 | 0.17 | 0.08 | 69 | 1013.7 |
| 20260502234548 | 43 | 265 | 2.0 | 8.0 | 0.00 | 0.17 | 0.08 | 70 | 1013.6 |
| 20260502233043 | 43 | 322 | 0.0 | 7.0 | 0.00 | 0.17 | 0.08 | 69 | 1013.5 |
| 20260502231541 | 43 | 288 | 2.0 | 6.0 | 0.00 | 0.17 | 0.08 | 68 | 1013.5 |
| 20260502230047 | 44 | 319 | 2.0 | 11.0 | 0.00 | 0.17 | 0.08 | 69 | 1013.4 |